Accueil
METAR-TAF:

METAR-TAF

Aéroports :

Deer Park Airport

Deer Park, Washington, États-Unis

latitude: 47-58-27N, longitude: 117-25-42W, altitude: 672 m

Observation

Le bulletin a été fait il y a 1 heure et 2 minutes, à 01:53 UTC
Vent 4 kt de nord
Température 19°C
Humidité 49%
Pression 1015 hPa
Visibilité: 0.8 km
brume sèche

METAR: KDEW 200153Z AUTO 01004KT 1/2SM HZ VV015 19/08 A2998 RMK AO2 SLP146 T01940078

Heure: 19:55 (02:55 UTC)


TAF: absent

Observations et prévisions météorologiques de plus de 4000 aéroports (messages METAR et TAF).

Les stations disponibles sont représentées par des disques jaunes et rouges sur la carte.

Passer la souris dessus pour voir le nom de la station.

Cliquer dessus pour voir les observations et prévisions météorologiques.

Pour changer de carte: cliquez sur les boutons verts avec une croix noire pour zoomer, sur le bouton vert avec un tiret pour effectuer un zoom arrière, ou sur les flèches vertes pour les cartes adjacentes.


METAR-TAF: